| time (UTC) | temp F | wind direction | speed MPH | gust MPH | rain 1hr in | rain 24hr in | rain mn in | humidity % | barometer mb |
| 20260901234216 | 65 | 306 | 1.0 | 4.0 | 0.00 | 0.00 | 0.00 | 28 | 1022.0 |
| 20260901233653 | 65 | 245 | 1.0 | 4.0 | 0.00 | 0.00 | 0.00 | 29 | 1022.0 |
| 20260901233149 | 65 | 274 | 1.0 | 7.0 | 0.00 | 0.00 | 0.00 | 29 | 1022.1 |
| 20260901232648 | 65 | 248 | 1.0 | 8.0 | 0.00 | 0.00 | 0.00 | 29 | 1022.1 |
| 20260901232226 | 66 | 223 | 2.0 | 8.0 | 0.00 | 0.00 | 0.00 | 29 | 1022.2 |
| 20260901231703 | 66 | 238 | 1.0 | 6.0 | 0.00 | 0.00 | 0.00 | 28 | 1022.2 |
| 20260901231221 | 66 | 256 | 2.0 | 6.0 | 0.00 | 0.00 | 0.00 | 28 | 1022.3 |
| 20260901230658 | 66 | 276 | 2.0 | 6.0 | 0.00 | 0.00 | 0.00 | 27 | 1022.3 |
| 20260901230155 | 66 | 275 | 1.0 | 6.0 | 0.00 | 0.00 | 0.00 | 27 | 1022.4 |
| 20260901225655 | 66 | 237 | 1.0 | 5.0 | 0.00 | 0.00 | 0.00 | 26 | 1022.4 |
| 20260901225150 | 66 | 299 | 1.0 | 8.0 | 0.00 | 0.00 | 0.00 | 26 | 1022.4 |
| 20260901224651 | 66 | 248 | 2.0 | 8.0 | 0.00 | 0.00 | 0.00 | 25 | 1022.4 |
| 20260901224150 | 67 | 238 | 2.0 | 5.0 | 0.00 | 0.00 | 0.00 | 24 | 1022.5 |
| 20260901223218 | 67 | 281 | 1.0 | 4.0 | 0.00 | 0.00 | 0.00 | 24 | 1022.6 |
| 20260901222715 | 67 | 213 | 2.0 | 4.0 | 0.00 | 0.00 | 0.00 | 24 | 1022.5 |
| 20260901222150 | 67 | 255 | 2.0 | 6.0 | 0.00 | 0.00 | 0.00 | 24 | 1022.6 |
| 20260901221648 | 67 | 229 | 1.0 | 5.0 | 0.00 | 0.00 | 0.00 | 24 | 1022.6 |
| 20260901221206 | 67 | 268 | 2.0 | 5.0 | 0.00 | 0.00 | 0.00 | 24 | 1022.7 |
| 20260901220725 | 67 | 268 | 1.0 | 5.0 | 0.00 | 0.00 | 0.00 | 23 | 1022.6 |
| 20260901220202 | 68 | 181 | 2.0 | 5.0 | 0.00 | 0.00 | 0.00 | 23 | 1022.6 |
| 20260901215700 | 68 | 255 | 1.0 | 6.0 | 0.00 | 0.00 | 0.00 | 23 | 1022.7 |
| 20260901215158 | 68 | 289 | 1.0 | 6.0 | 0.00 | 0.00 | 0.00 | 23 | 1022.7 |
| 20260901214657 | 68 | 277 | 1.0 | 5.0 | 0.00 | 0.00 | 0.00 | 23 | 1022.7 |
| 20260901214156 | 69 | 242 | 2.0 | 6.0 | 0.00 | 0.00 | 0.00 | 23 | 1022.7 |
| 20260901213654 | 69 | 266 | 2.0 | 6.0 | 0.00 | 0.00 | 0.00 | 22 | 1022.7 |
| 20260901213150 | 69 | 294 | 1.0 | 5.0 | 0.00 | 0.00 | 0.00 | 22 | 1022.6 |
| 20260901212647 | 70 | 273 | 1.0 | 6.0 | 0.00 | 0.00 | 0.00 | 22 | 1022.6 |
| 20260901212202 | 70 | 312 | 2.0 | 6.0 | 0.00 | 0.00 | 0.00 | 21 | 1022.8 |
| 20260901211706 | 69 | 284 | 1.0 | 5.0 | 0.00 | 0.00 | 0.00 | 23 | 1022.8 |
| 20260901211224 | 69 | 288 | 2.0 | 6.0 | 0.00 | 0.00 | 0.00 | 23 | 1022.9 |
| 20260901210658 | 70 | 213 | 1.0 | 6.0 | 0.00 | 0.00 | 0.00 | 23 | 1022.8 |
| 20260901210156 | 70 | 276 | 1.0 | 4.0 | 0.00 | 0.00 | 0.00 | 23 | 1022.9 |
| 20260901205653 | 70 | 291 | 1.0 | 10.0 | 0.00 | 0.00 | 0.00 | 23 | 1022.8 |
| 20260901205210 | 70 | 245 | 1.0 | 6.0 | 0.00 | 0.00 | 0.00 | 23 | 1022.8 |
| 20260901204706 | 71 | 236 | 1.0 | 6.0 | 0.00 | 0.00 | 0.00 | 22 | 1022.8 |
| 20260901204204 | 70 | 238 | 2.0 | 6.0 | 0.00 | 0.00 | 0.00 | 21 | 1022.8 |
| 20260901203703 | 70 | 311 | 2.0 | 6.0 | 0.00 | 0.00 | 0.00 | 22 | 1022.8 |
| 20260901203200 | 70 | 279 | 1.0 | 4.0 | 0.00 | 0.00 | 0.00 | 23 | 1023.2 |
| 20260901202658 | 70 | 240 | 1.0 | 6.0 | 0.00 | 0.00 | 0.00 | 22 | 1023.1 |
| 20260901202155 | 70 | 92 | 2.0 | 6.0 | 0.00 | 0.00 | 0.00 | 22 | 1023.1 |
| 20260901201652 | 70 | 131 | 1.0 | 10.0 | 0.00 | 0.00 | 0.00 | 22 | 1023.1 |
| 20260901201150 | 70 | 345 | 2.0 | 10.0 | 0.00 | 0.00 | 0.00 | 22 | 1023.3 |
| 20260901200707 | 71 | 299 | 2.0 | 5.0 | 0.00 | 0.00 | 0.00 | 20 | 1023.3 |
| 20260901200205 | 71 | 275 | 1.0 | 4.0 | 0.00 | 0.00 | 0.00 | 20 | 1023.3 |
| 20260901195703 | 70 | 258 | 1.0 | 4.0 | 0.00 | 0.00 | 0.00 | 19 | 1023.1 |
| 20260901195205 | 70 | 207 | 2.0 | 5.0 | 0.00 | 0.00 | 0.00 | 21 | 1023.3 |
| 20260901194703 | 70 | 221 | 2.0 | 6.0 | 0.00 | 0.00 | 0.00 | 20 | 1023.3 |
| 20260901194202 | 70 | 236 | 2.0 | 6.0 | 0.00 | 0.00 | 0.00 | 20 | 1023.4 |
| 20260901193700 | 70 | 291 | 2.0 | 6.0 | 0.00 | 0.00 | 0.00 | 20 | 1023.4 |
| 20260901193158 | 71 | 258 | 2.0 | 6.0 | 0.00 | 0.00 | 0.00 | 19 | 1023.4 |
| 20260901192654 | 70 | 111 | 1.0 | 6.0 | 0.00 | 0.00 | 0.00 | 20 | 1023.4 |
| 20260901192151 | 70 | 286 | 2.0 | 6.0 | 0.00 | 0.00 | 0.00 | 19 | 1023.5 |
| 20260901191649 | 70 | 235 | 1.0 | 4.0 | 0.00 | 0.00 | 0.00 | 19 | 1023.5 |
| 20260901191207 | 70 | 237 | 1.0 | 5.0 | 0.00 | 0.00 | 0.00 | 20 | 1023.5 |
| 20260901190704 | 70 | 252 | 2.0 | 8.0 | 0.00 | 0.00 | 0.00 | 19 | 1023.6 |
| 20260901190202 | 70 | 67 | 2.0 | 8.0 | 0.00 | 0.00 | 0.00 | 20 | 1023.6 |
| 20260901185701 | 69 | 264 | 1.0 | 4.0 | 0.00 | 0.00 | 0.00 | 21 | 1023.6 |
| 20260901185158 | 69 | 261 | 2.0 | 3.0 | 0.00 | 0.00 | 0.00 | 20 | 1023.7 |
| 20260901184656 | 70 | 250 | 2.0 | 3.0 | 0.00 | 0.00 | 0.00 | 20 | 1023.6 |
| 20260901184159 | 69 | 212 | 1.0 | 5.0 | 0.00 | 0.00 | 0.00 | 20 | 1023.7 |
| 20260901183657 | 69 | 234 | 1.0 | 5.0 | 0.00 | 0.00 | 0.00 | 21 | 1023.6 |
| 20260901183154 | 69 | 293 | 1.0 | 6.0 | 0.00 | 0.00 | 0.00 | 21 | 1023.6 |
| 20260901182652 | 69 | 245 | 2.0 | 6.0 | 0.00 | 0.00 | 0.00 | 22 | 1023.7 |
| 20260901182149 | 69 | 296 | 1.0 | 5.0 | 0.00 | 0.00 | 0.00 | 24 | 1023.6 |
| 20260901181707 | 69 | 212 | 1.0 | 4.0 | 0.00 | 0.00 | 0.00 | 25 | 1023.6 |
| 20260901181206 | 68 | 271 | 2.0 | 5.0 | 0.00 | 0.00 | 0.00 | 26 | 1023.6 |
| 20260901180703 | 68 | 277 | 1.0 | 4.0 | 0.00 | 0.00 | 0.00 | 25 | 1023.5 |
| 20260901180202 | 69 | 116 | 1.0 | 5.0 | 0.00 | 0.00 | 0.00 | 25 | 1023.5 |
| 20260901175701 | 69 | 110 | 2.0 | 5.0 | 0.00 | 0.00 | 0.00 | 26 | 1023.4 |
| 20260901175159 | 69 | 271 | 1.0 | 5.0 | 0.00 | 0.00 | 0.00 | 26 | 1023.4 |
| 20260901174657 | 69 | 255 | 1.0 | 5.0 | 0.00 | 0.00 | 0.00 | 26 | 1023.4 |
| 20260901174154 | 69 | 302 | 1.0 | 6.0 | 0.00 | 0.00 | 0.00 | 28 | 1023.3 |
| 20260901173652 | 68 | 309 | 3.0 | 6.0 | 0.00 | 0.00 | 0.00 | 28 | 1023.4 |
| 20260901173154 | 68 | 148 | 1.0 | 5.0 | 0.00 | 0.00 | 0.00 | 29 | 1023.3 |
| 20260901172652 | 68 | 277 | 1.0 | 5.0 | 0.00 | 0.00 | 0.00 | 29 | 1023.3 |
| 20260901172149 | 68 | 198 | 1.0 | 6.0 | 0.00 | 0.00 | 0.00 | 30 | 1023.2 |
| 20260901171707 | 68 | 276 | 2.0 | 6.0 | 0.00 | 0.00 | 0.00 | 29 | 1023.1 |
| 20260901171204 | 67 | 132 | 1.0 | 5.0 | 0.00 | 0.00 | 0.00 | 29 | 1023.2 |
| 20260901170702 | 67 | 175 | 1.0 | 5.0 | 0.00 | 0.00 | 0.00 | 29 | 1023.1 |
| 20260901170159 | 66 | 134 | 1.0 | 8.0 | 0.00 | 0.00 | 0.00 | 29 | 1023.1 |
| 20260901165658 | 66 | 293 | 2.0 | 8.0 | 0.00 | 0.00 | 0.00 | 28 | 1023.1 |
| 20260901165156 | 66 | 47 | 3.0 | 8.0 | 0.00 | 0.00 | 0.00 | 25 | 1023.1 |
| 20260901164653 | 66 | 326 | 1.0 | 7.0 | 0.00 | 0.00 | 0.00 | 27 | 1023.0 |
| 20260901164203 | 66 | 304 | 2.0 | 7.0 | 0.00 | 0.00 | 0.00 | 30 | 1023.1 |
| 20260901163702 | 65 | 327 | 1.0 | 6.0 | 0.00 | 0.00 | 0.00 | 31 | 1023.0 |
| 20260901163220 | 65 | 243 | 1.0 | 5.0 | 0.00 | 0.00 | 0.00 | 32 | 1022.9 |
| 20260901162657 | 64 | 257 | 0.0 | 5.0 | 0.00 | 0.00 | 0.00 | 32 | 1022.9 |
| 20260901162155 | 64 | 295 | 1.0 | 5.0 | 0.00 | 0.00 | 0.00 | 32 | 1022.9 |
| 20260901161711 | 64 | 260 | 0.0 | 3.0 | 0.00 | 0.00 | 0.00 | 34 | 1022.8 |
| 20260901161208 | 63 | 259 | 1.0 | 2.0 | 0.00 | 0.00 | 0.00 | 33 | 1022.8 |
| 20260901160650 | 63 | 205 | 1.0 | 3.0 | 0.00 | 0.00 | 0.00 | 35 | 1022.8 |
| 20260901160224 | 62 | 275 | 0.0 | 3.0 | 0.00 | 0.00 | 0.00 | 38 | 1022.8 |
| 20260901155705 | 62 | 244 | 1.0 | 3.0 | 0.00 | 0.00 | 0.00 | 39 | 1022.8 |
| 20260901155200 | 61 | 165 | 1.0 | 3.0 | 0.00 | 0.00 | 0.00 | 39 | 1022.7 |
| 20260901154658 | 61 | 303 | 1.0 | 3.0 | 0.00 | 0.00 | 0.00 | 40 | 1022.8 |
| 20260901154157 | 61 | 303 | 0.0 | 3.0 | 0.00 | 0.00 | 0.00 | 41 | 1022.7 |
| 20260901153656 | 60 | 174 | 1.0 | 5.0 | 0.00 | 0.00 | 0.00 | 40 | 1022.6 |
| 20260901153153 | 60 | 266 | 1.0 | 5.0 | 0.00 | 0.00 | 0.00 | 40 | 1022.6 |
| 20260901152650 | 60 | 257 | 1.0 | 4.0 | 0.00 | 0.00 | 0.00 | 41 | 1022.6 |
| 20260901152207 | 59 | 266 | 1.0 | 5.0 | 0.00 | 0.00 | 0.00 | 42 | 1022.6 |
| 20260901151725 | 59 | 306 | 1.0 | 5.0 | 0.00 | 0.00 | 0.00 | 42 | 1022.5 |
| 20260901151202 | 58 | 282 | 1.0 | 5.0 | 0.00 | 0.00 | 0.00 | 42 | 1022.4 |
| 20260901150659 | 59 | 264 | 1.0 | 3.0 | 0.00 | 0.00 | 0.00 | 42 | 1022.5 |
| 20260901150217 | 58 | 281 | 1.0 | 2.0 | 0.00 | 0.00 | 0.00 | 41 | 1022.5 |
| 20260901145655 | 58 | 271 | 1.0 | 2.0 | 0.00 | 0.00 | 0.00 | 40 | 1022.4 |
| 20260901145151 | 58 | 247 | 1.0 | 4.0 | 0.00 | 0.00 | 0.00 | 39 | 1022.4 |
| 20260901144729 | 58 | 297 | 1.0 | 5.0 | 0.00 | 0.00 | 0.00 | 39 | 1022.3 |
| 20260901144206 | 58 | 288 | 0.0 | 5.0 | 0.00 | 0.00 | 0.00 | 36 | 1022.2 |
| 20260901143704 | 57 | 180 | 0.0 | 6.0 | 0.00 | 0.00 | 0.00 | 36 | 1022.1 |
| 20260901143202 | 57 | 252 | 0.0 | 6.0 | 0.00 | 0.00 | 0.00 | 37 | 1022.0 |
| 20260901142705 | 57 | 320 | 1.0 | 4.0 | 0.00 | 0.00 | 0.00 | 36 | 1021.9 |
| 20260901142202 | 57 | 208 | 1.0 | 4.0 | 0.00 | 0.00 | 0.00 | 36 | 1021.9 |
| 20260901141700 | 56 | 294 | 1.0 | 4.0 | 0.00 | 0.00 | 0.00 | 37 | 1021.9 |
| 20260901141158 | 56 | 249 | 1.0 | 2.0 | 0.00 | 0.00 | 0.00 | 37 | 1021.9 |
| 20260901140656 | 55 | 293 | 1.0 | 3.0 | 0.00 | 0.00 | 0.00 | 35 | 1021.7 |
| 20260901140154 | 55 | 243 | 1.0 | 3.0 | 0.00 | 0.00 | 0.00 | 36 | 1021.8 |
| 20260901135650 | 54 | 287 | 0.0 | 3.0 | 0.00 | 0.00 | 0.00 | 36 | 1021.7 |
| 20260901135209 | 54 | 229 | 1.0 | 2.0 | 0.00 | 0.00 | 0.00 | 36 | 1021.7 |
| 20260901134706 | 54 | 184 | 0.0 | 4.0 | 0.00 | 0.00 | 0.00 | 35 | 1021.7 |
| 20260901134204 | 53 | 239 | 1.0 | 5.0 | 0.00 | 0.00 | 0.00 | 36 | 1021.6 |
| 20260901133701 | 52 | 250 | 0.0 | 5.0 | 0.00 | 0.00 | 0.00 | 36 | 1021.5 |
| 20260901133159 | 51 | 296 | 0.0 | 1.0 | 0.00 | 0.00 | 0.00 | 35 | 1021.5 |
| 20260901132657 | 50 | 357 | 0.0 | 1.0 | 0.00 | 0.00 | 0.00 | 34 | 1021.6 |
| 20260901132154 | 50 | 352 | 0.0 | 1.0 | 0.00 | 0.00 | 0.00 | 34 | 1021.5 |
| 20260901131656 | 50 | 30 | 0.0 | 1.0 | 0.00 | 0.00 | 0.00 | 33 | 1021.6 |
| 20260901131154 | 51 | 75 | 0.0 | 1.0 | 0.00 | 0.00 | 0.00 | 32 | 1021.6 |
| 20260901130711 | 51 | 78 | 0.0 | 1.0 | 0.00 | 0.00 | 0.00 | 32 | 1021.6 |
| 20260901130209 | 51 | 82 | 0.0 | 1.0 | 0.00 | 0.00 | 0.00 | 31 | 1021.5 |
| 20260901125707 | 51 | 44 | 0.0 | 0.0 | 0.00 | 0.00 | 0.00 | 32 | 1021.6 |
| 20260901125204 | 51 | 240 | 0.0 | 1.0 | 0.00 | 0.00 | 0.00 | 33 | 1021.6 |
| 20260901124702 | 51 | 240 | 0.0 | 1.0 | 0.00 | 0.00 | 0.00 | 33 | 1021.5 |
| 20260901124200 | 50 | 250 | 0.0 | 1.0 | 0.00 | 0.00 | 0.00 | 36 | 1021.6 |
| 20260901123718 | 49 | 250 | 0.0 | 1.0 | 0.00 | 0.00 | 0.00 | 37 | 1021.6 |
| 20260901123154 | 49 | 250 | 0.0 | 0.0 | 0.00 | 0.00 | 0.00 | 36 | 1021.7 |
| 20260901122652 | 49 | 250 | 0.0 | 0.0 | 0.00 | 0.00 | 0.00 | 36 | 1021.7 |
| 20260901122230 | 49 | 250 | 0.0 | 1.0 | 0.00 | 0.00 | 0.00 | 35 | 1021.7 |
| 20260901121729 | 49 | 250 | 0.0 | 1.0 | 0.00 | 0.00 | 0.00 | 35 | 1021.7 |
| 20260901121225 | 49 | 250 | 0.0 | 1.0 | 0.00 | 0.00 | 0.00 | 35 | 1021.7 |
| 20260901120702 | 49 | 250 | 0.0 | 1.0 | 0.00 | 0.00 | 0.00 | 35 | 1021.7 |
| 20260901120200 | 49 | 250 | 0.0 | 1.0 | 0.00 | 0.00 | 0.00 | 36 | 1021.7 |
| 20260901115658 | 49 | 250 | 0.0 | 1.0 | 0.00 | 0.00 | 0.00 | 34 | 1021.8 |
| 20260901115156 | 49 | 250 | 0.0 | 1.0 | 0.00 | 0.00 | 0.00 | 34 | 1021.7 |
| 20260901114654 | 49 | 250 | 0.0 | 1.0 | 0.00 | 0.00 | 0.00 | 35 | 1021.8 |
| 20260901114153 | 49 | 250 | 0.0 | 1.0 | 0.00 | 0.00 | 0.00 | 36 | 1021.8 |
| 20260901113711 | 49 | 250 | 0.0 | 1.0 | 0.00 | 0.00 | 0.00 | 35 | 1021.7 |
| 20260901113208 | 49 | 250 | 0.0 | 1.0 | 0.00 | 0.00 | 0.00 | 36 | 1021.8 |
| 20260901112706 | 49 | 250 | 0.0 | 1.0 | 0.00 | 0.00 | 0.00 | 36 | 1021.8 |
| 20260901112204 | 50 | 250 | 0.0 | 1.0 | 0.00 | 0.00 | 0.00 | 36 | 1021.7 |
| 20260901111702 | 50 | 250 | 0.0 | 1.0 | 0.00 | 0.00 | 0.00 | 36 | 1021.7 |
| 20260901111200 | 50 | 250 | 0.0 | 1.0 | 0.00 | 0.00 | 0.00 | 35 | 1021.7 |
| 20260901110657 | 50 | 243 | 0.0 | 1.0 | 0.00 | 0.00 | 0.00 | 35 | 1021.9 |
| 20260901110155 | 50 | 243 | 0.0 | 1.0 | 0.00 | 0.00 | 0.00 | 35 | 1021.9 |
| 20260901105654 | 50 | 243 | 0.0 | 1.0 | 0.00 | 0.00 | 0.00 | 35 | 1021.9 |
| 20260901105210 | 49 | 250 | 0.0 | 1.0 | 0.00 | 0.00 | 0.00 | 36 | 1021.9 |
| 20260901104708 | 49 | 252 | 0.0 | 1.0 | 0.00 | 0.00 | 0.00 | 37 | 1021.9 |
| 20260901104206 | 50 | 252 | 0.0 | 0.0 | 0.00 | 0.00 | 0.00 | 38 | 1021.9 |
| 20260901103705 | 50 | 252 | 0.0 | 0.0 | 0.00 | 0.00 | 0.00 | 38 | 1021.9 |
| 20260901103202 | 50 | 252 | 0.0 | 1.0 | 0.00 | 0.00 | 0.00 | 38 | 1021.9 |
| 20260901102659 | 50 | 252 | 0.0 | 1.0 | 0.00 | 0.00 | 0.00 | 38 | 1021.9 |
| 20260901102157 | 50 | 252 | 0.0 | 0.0 | 0.00 | 0.00 | 0.00 | 39 | 1021.9 |
| 20260901101653 | 50 | 252 | 0.0 | 1.0 | 0.00 | 0.00 | 0.00 | 39 | 1022.1 |
| 20260901101211 | 50 | 252 | 0.0 | 1.0 | 0.00 | 0.00 | 0.00 | 39 | 1022.2 |
| 20260901100708 | 51 | 233 | 0.0 | 0.0 | 0.00 | 0.00 | 0.00 | 39 | 1022.1 |
| 20260901100207 | 52 | 233 | 0.0 | 1.0 | 0.00 | 0.00 | 0.00 | 38 | 1022.2 |
| 20260901095725 | 52 | 233 | 0.0 | 1.0 | 0.00 | 0.00 | 0.00 | 38 | 1022.1 |
| 20260901095201 | 51 | 233 | 0.0 | 1.0 | 0.00 | 0.00 | 0.00 | 39 | 1022.1 |
| 20260901094659 | 52 | 250 | 0.0 | 1.0 | 0.00 | 0.00 | 0.00 | 41 | 1022.1 |
| 20260901094158 | 52 | 255 | 0.0 | 1.0 | 0.00 | 0.00 | 0.00 | 41 | 1022.1 |
| 20260901093656 | 52 | 255 | 0.0 | 1.0 | 0.00 | 0.00 | 0.00 | 40 | 1022.2 |
| 20260901093154 | 53 | 255 | 0.0 | 1.0 | 0.00 | 0.00 | 0.00 | 40 | 1022.2 |
| 20260901092731 | 53 | 255 | 0.0 | 2.0 | 0.00 | 0.00 | 0.00 | 39 | 1022.2 |
| 20260901092208 | 53 | 255 | 1.0 | 2.0 | 0.00 | 0.00 | 0.00 | 39 | 1022.2 |
| 20260901091705 | 53 | 254 | 0.0 | 2.0 | 0.00 | 0.00 | 0.00 | 40 | 1022.1 |
| 20260901091203 | 52 | 256 | 1.0 | 2.0 | 0.00 | 0.00 | 0.00 | 41 | 1021.9 |
| 20260901090701 | 52 | 253 | 0.0 | 1.0 | 0.00 | 0.00 | 0.00 | 43 | 1021.9 |
| 20260901090203 | 52 | 253 | 0.0 | 1.0 | 0.00 | 0.00 | 0.00 | 43 | 1022.1 |
| 20260901085722 | 52 | 253 | 0.0 | 1.0 | 0.00 | 0.00 | 0.00 | 45 | 1022.2 |
| 20260901085159 | 52 | 249 | 0.0 | 1.0 | 0.00 | 0.00 | 0.00 | 45 | 1022.2 |
| 20260901084655 | 52 | 249 | 1.0 | 1.0 | 0.00 | 0.00 | 0.00 | 45 | 1022.3 |
| 20260901084153 | 52 | 248 | 0.0 | 1.0 | 0.00 | 0.00 | 0.00 | 47 | 1022.4 |
| 20260901083711 | 52 | 248 | 0.0 | 1.0 | 0.00 | 0.00 | 0.00 | 47 | 1022.4 |
| 20260901083208 | 52 | 248 | 0.0 | 1.0 | 0.00 | 0.00 | 0.00 | 47 | 1022.4 |
| 20260901082706 | 52 | 248 | 1.0 | 1.0 | 0.00 | 0.00 | 0.00 | 47 | 1022.5 |
| 20260901082204 | 52 | 248 | 0.0 | 1.0 | 0.00 | 0.00 | 0.00 | 48 | 1022.5 |
| 20260901081702 | 52 | 249 | 0.0 | 1.0 | 0.00 | 0.00 | 0.00 | 49 | 1022.5 |
| 20260901081200 | 52 | 249 | 0.0 | 1.0 | 0.00 | 0.00 | 0.00 | 48 | 1022.5 |
| 20260901080658 | 52 | 244 | 0.0 | 1.0 | 0.00 | 0.00 | 0.00 | 49 | 1022.4 |
| 20260901080156 | 52 | 252 | 0.0 | 1.0 | 0.00 | 0.00 | 0.00 | 50 | 1022.5 |
| 20260901075656 | 52 | 252 | 0.0 | 1.0 | 0.00 | 0.00 | 0.00 | 50 | 1022.5 |
| 20260901075211 | 52 | 252 | 0.0 | 1.0 | 0.00 | 0.00 | 0.00 | 50 | 1022.6 |
| 20260901074708 | 51 | 252 | 0.0 | 1.0 | 0.00 | 0.00 | 0.00 | 51 | 1022.5 |
| 20260901074225 | 51 | 252 | 0.0 | 1.0 | 0.00 | 0.00 | 0.00 | 51 | 1022.6 |
| 20260901073706 | 51 | 252 | 0.0 | 0.0 | 0.00 | 0.00 | 0.00 | 52 | 1022.6 |
| 20260901073204 | 51 | 252 | 0.0 | 1.0 | 0.00 | 0.00 | 0.00 | 52 | 1022.6 |
| 20260901072702 | 51 | 252 | 0.0 | 1.0 | 0.00 | 0.00 | 0.00 | 51 | 1022.6 |
| 20260901072159 | 50 | 252 | 0.0 | 1.0 | 0.00 | 0.00 | 0.00 | 53 | 1022.6 |
| 20260901071717 | 51 | 252 | 0.0 | 0.0 | 0.00 | 0.00 | 0.00 | 55 | 1022.6 |
| 20260901071234 | 51 | 252 | 0.0 | 1.0 | 0.00 | 0.00 | 0.00 | 55 | 1022.7 |
| 20260901070711 | 51 | 252 | 0.0 | 1.0 | 0.00 | 0.00 | 0.00 | 55 | 1022.7 |
| 20260901070209 | 52 | 252 | 0.0 | 0.0 | 0.00 | 0.00 | 0.00 | 54 | 1022.7 |
| 20260901065707 | 52 | 252 | 0.0 | 0.0 | 0.00 | 0.00 | 0.00 | 54 | 1022.8 |
| 20260901065206 | 52 | 252 | 0.0 | 0.0 | 0.00 | 0.00 | 0.00 | 54 | 1022.8 |
| 20260901064700 | 53 | 252 | 0.0 | 1.0 | 0.00 | 0.00 | 0.00 | 55 | 1022.8 |
| 20260901064159 | 52 | 252 | 0.0 | 1.0 | 0.00 | 0.00 | 0.00 | 55 | 1022.7 |
| 20260901063657 | 52 | 252 | 0.0 | 1.0 | 0.00 | 0.00 | 0.00 | 56 | 1022.7 |
| 20260901063154 | 52 | 252 | 0.0 | 1.0 | 0.00 | 0.00 | 0.00 | 56 | 1022.7 |
| 20260901062712 | 52 | 252 | 0.0 | 1.0 | 0.00 | 0.00 | 0.00 | 58 | 1022.7 |
| 20260901062209 | 52 | 252 | 0.0 | 1.0 | 0.00 | 0.00 | 0.00 | 58 | 1022.7 |
| 20260901061707 | 53 | 252 | 0.0 | 1.0 | 0.00 | 0.00 | 0.00 | 56 | 1022.8 |
| 20260901061209 | 53 | 252 | 0.0 | 1.0 | 0.00 | 0.00 | 0.00 | 55 | 1022.8 |
| 20260901060703 | 53 | 252 | 0.0 | 1.0 | 0.00 | 0.00 | 0.00 | 55 | 1022.8 |
| 20260901060201 | 54 | 252 | 0.0 | 1.0 | 0.00 | 0.00 | 0.00 | 53 | 1022.7 |
| 20260901055701 | 54 | 252 | 0.0 | 1.0 | 0.00 | 0.00 | 0.00 | 52 | 1022.8 |
| 20260901055158 | 55 | 252 | 1.0 | 1.0 | 0.00 | 0.00 | 0.00 | 53 | 1022.8 |
| 20260901054716 | 56 | 256 | 0.0 | 2.0 | 0.00 | 0.00 | 0.00 | 53 | 1022.8 |
| 20260901054213 | 57 | 257 | 1.0 | 2.0 | 0.00 | 0.00 | 0.00 | 45 | 1022.9 |
| 20260901053711 | 57 | 259 | 0.0 | 1.0 | 0.00 | 0.00 | 0.00 | 41 | 1022.9 |
| 20260901053208 | 58 | 259 | 0.0 | 1.0 | 0.00 | 0.00 | 0.00 | 41 | 1022.9 |
| 20260901052726 | 58 | 259 | 0.0 | 2.0 | 0.00 | 0.00 | 0.00 | 40 | 1023.0 |
| 20260901052223 | 57 | 248 | 0.0 | 3.0 | 0.00 | 0.00 | 0.00 | 41 | 1023.0 |
| 20260901051717 | 57 | 254 | 0.0 | 3.0 | 0.00 | 0.00 | 0.00 | 41 | 1023.0 |
| 20260901051212 | 57 | 253 | 0.0 | 2.0 | 0.00 | 0.00 | 0.00 | 42 | 1023.0 |
| 20260901050710 | 58 | 250 | 0.0 | 2.0 | 0.00 | 0.00 | 0.00 | 41 | 1023.0 |
| 20260901050208 | 59 | 254 | 0.0 | 2.0 | 0.00 | 0.00 | 0.00 | 38 | 1023.0 |
| 20260901045708 | 58 | 263 | 0.0 | 2.0 | 0.00 | 0.00 | 0.00 | 38 | 1023.0 |
| 20260901045204 | 58 | 258 | 1.0 | 2.0 | 0.00 | 0.00 | 0.00 | 38 | 1023.1 |
| 20260901044702 | 57 | 259 | 0.0 | 3.0 | 0.00 | 0.00 | 0.00 | 40 | 1023.1 |
| 20260901044221 | 57 | 255 | 0.0 | 3.0 | 0.00 | 0.00 | 0.00 | 43 | 1023.1 |
| 20260901043719 | 56 | 250 | 0.0 | 3.0 | 0.00 | 0.00 | 0.00 | 44 | 1023.1 |
| 20260901043155 | 55 | 252 | 0.0 | 2.0 | 0.00 | 0.00 | 0.00 | 51 | 1023.0 |
| 20260901042657 | 54 | 258 | 1.0 | 2.0 | 0.00 | 0.00 | 0.00 | 52 | 1023.1 |
| 20260901042229 | 54 | 259 | 0.0 | 1.0 | 0.00 | 0.00 | 0.00 | 52 | 1023.1 |
| 20260901041710 | 53 | 260 | 0.0 | 1.0 | 0.00 | 0.00 | 0.00 | 60 | 1023.1 |
| 20260901041206 | 52 | 248 | 0.0 | 1.0 | 0.00 | 0.00 | 0.00 | 67 | 1023.2 |
| 20260901040705 | 52 | 248 | 0.0 | 1.0 | 0.00 | 0.00 | 0.00 | 72 | 1023.1 |
| 20260901040223 | 52 | 248 | 0.0 | 1.0 | 0.00 | 0.00 | 0.00 | 72 | 1023.0 |
| 20260901035657 | 52 | 248 | 0.0 | 1.0 | 0.00 | 0.00 | 0.00 | 72 | 1023.0 |
| 20260901035154 | 52 | 247 | 0.0 | 1.0 | 0.00 | 0.00 | 0.00 | 75 | 1022.9 |
| 20260901034712 | 52 | 208 | 0.0 | 1.0 | 0.00 | 0.00 | 0.00 | 75 | 1022.8 |
| 20260901034231 | 52 | 208 | 0.0 | 1.0 | 0.00 | 0.00 | 0.00 | 75 | 1022.8 |
| 20260901033708 | 52 | 208 | 0.0 | 1.0 | 0.00 | 0.00 | 0.00 | 75 | 1022.7 |
| 20260901033206 | 52 | 208 | 0.0 | 0.0 | 0.00 | 0.00 | 0.00 | 74 | 1022.6 |
| 20260901032704 | 52 | 208 | 0.0 | 0.0 | 0.00 | 0.00 | 0.00 | 75 | 1022.6 |
| 20260901032222 | 52 | 208 | 0.0 | 0.0 | 0.00 | 0.00 | 0.00 | 74 | 1022.5 |
| 20260901031658 | 52 | 134 | 0.0 | 0.0 | 0.00 | 0.00 | 0.00 | 74 | 1022.4 |
| 20260901031215 | 53 | 134 | 0.0 | 0.0 | 0.00 | 0.00 | 0.00 | 74 | 1022.3 |
| 20260901030710 | 53 | 134 | 0.0 | 0.0 | 0.00 | 0.00 | 0.00 | 73 | 1022.2 |
| 20260901030208 | 53 | 134 | 0.0 | 0.0 | 0.00 | 0.00 | 0.00 | 72 | 1022.2 |
| 20260901025707 | 54 | 134 | 0.0 | 0.0 | 0.00 | 0.00 | 0.00 | 72 | 1022.0 |
| 20260901025204 | 54 | 134 | 0.0 | 1.0 | 0.00 | 0.00 | 0.00 | 71 | 1022.0 |
| 20260901024706 | 54 | 123 | 0.0 | 1.0 | 0.00 | 0.00 | 0.00 | 70 | 1021.9 |
| 20260901024204 | 55 | 123 | 0.0 | 1.0 | 0.00 | 0.00 | 0.00 | 70 | 1021.9 |
| 20260901023701 | 55 | 128 | 0.0 | 1.0 | 0.00 | 0.00 | 0.00 | 69 | 1021.9 |
| 20260901023200 | 55 | 52 | 0.0 | 1.0 | 0.00 | 0.00 | 0.00 | 69 | 1021.9 |
| 20260901022657 | 56 | 37 | 0.0 | 1.0 | 0.00 | 0.00 | 0.00 | 68 | 1021.8 |
| 20260901022214 | 56 | 37 | 0.0 | 1.0 | 0.00 | 0.00 | 0.00 | 67 | 1021.7 |
| 20260901021712 | 57 | 9 | 0.0 | 0.0 | 0.00 | 0.00 | 0.00 | 66 | 1021.7 |
| 20260901021210 | 57 | 9 | 0.0 | 1.0 | 0.00 | 0.00 | 0.00 | 65 | 1021.7 |
| 20260901020708 | 58 | 9 | 0.0 | 2.0 | 0.00 | 0.00 | 0.00 | 63 | 1021.6 |
| 20260901020206 | 59 | 6 | 0.0 | 2.0 | 0.00 | 0.00 | 0.00 | 62 | 1021.6 |
| 20260901015704 | 59 | 78 | 0.0 | 1.0 | 0.00 | 0.00 | 0.00 | 61 | 1021.6 |
| 20260901015202 | 60 | 355 | 0.0 | 1.0 | 0.00 | 0.00 | 0.00 | 60 | 1021.6 |
| 20260901014659 | 60 | 296 | 0.0 | 3.0 | 0.00 | 0.00 | 0.00 | 59 | 1021.6 |
| 20260901014155 | 60 | 231 | 1.0 | 3.0 | 0.00 | 0.00 | 0.00 | 58 | 1021.7 |
| 20260901013656 | 61 | 297 | 0.0 | 2.0 | 0.00 | 0.00 | 0.00 | 57 | 1021.7 |
| 20260901013231 | 61 | 68 | 0.0 | 2.0 | 0.00 | 0.00 | 0.00 | 56 | 1021.7 |
| 20260901012711 | 61 | 85 | 0.0 | 2.0 | 0.00 | 0.00 | 0.00 | 56 | 1021.7 |
| 20260901012210 | 62 | 30 | 0.0 | 2.0 | 0.00 | 0.00 | 0.00 | 54 | 1021.7 |
| 20260901011708 | 62 | 9 | 0.0 | 1.0 | 0.00 | 0.00 | 0.00 | 54 | 1021.7 |
| 20260901011226 | 63 | 203 | 0.0 | 2.0 | 0.00 | 0.00 | 0.00 | 53 | 1021.8 |
| 20260901010723 | 63 | 49 | 0.0 | 3.0 | 0.00 | 0.00 | 0.00 | 52 | 1021.7 |
| 20260901010200 | 63 | 210 | 1.0 | 3.0 | 0.00 | 0.00 | 0.00 | 51 | 1021.7 |
| 20260901005658 | 64 | 172 | 1.0 | 8.0 | 0.00 | 0.00 | 0.00 | 51 | 1021.8 |
| 20260901005216 | 64 | 358 | 0.0 | 8.0 | 0.00 | 0.00 | 0.00 | 51 | 1021.8 |
| 20260901004713 | 65 | 68 | 1.0 | 6.0 | 0.00 | 0.00 | 0.00 | 50 | 1022.0 |
| 20260901004233 | 65 | 260 | 1.0 | 3.0 | 0.00 | 0.00 | 0.00 | 49 | 1022.0 |
| 20260901003704 | 65 | 192 | 0.0 | 3.0 | 0.00 | 0.00 | 0.00 | 50 | 1022.0 |
| 20260901003202 | 66 | 290 | 1.0 | 3.0 | 0.00 | 0.00 | 0.00 | 49 | 1021.9 |
| 20260901002719 | 66 | 252 | 1.0 | 3.0 | 0.00 | 0.00 | 0.00 | 47 | 1021.9 |
| 20260901002234 | 67 | 53 | 0.0 | 3.0 | 0.00 | 0.00 | 0.00 | 46 | 1021.9 |
| 20260901001711 | 67 | 249 | 1.0 | 4.0 | 0.00 | 0.00 | 0.00 | 45 | 1022.0 |
| 20260901001209 | 67 | 176 | 1.0 | 4.0 | 0.00 | 0.00 | 0.00 | 42 | 1021.9 |
| 20260901000705 | 68 | 255 | 1.0 | 3.0 | 0.00 | 0.00 | 0.00 | 43 | 1022.0 |
| 20260901000204 | 68 | 173 | 0.0 | 3.0 | 0.00 | 0.00 | 0.00 | 41 | 1022.1 |
| 20260831235722 | 68 | 220 | 1.0 | 4.0 | 0.00 | 0.00 | 0.00 | 41 | 1022.1 |
| 20260831235158 | 68 | 242 | 1.0 | 4.0 | 0.00 | 0.00 | 0.00 | 38 | 1022.0 |
| 20260831234737 | 69 | 212 | 1.0 | 3.0 | 0.00 | 0.00 | 0.00 | 37 | 1022.1 |